This demonstration page uses our WeatherBlox Daily Observations layout. Learn more.

Left ArrowRight Arrow

Hourly Observations for July 5, 2022

Temp ( °F °C ) Dew Point ( °F °C ) Humidity (%) Winds ( mph kmh ) Pressure ( in mb ) Visibility ( mi km ) Precip ( " mm )
12:59 am 00:59 Partly Cloudy 73 22.8 66 18.9 79 79 SE 3 6 30.16 1021 7 11 0.00 0.00
1:59 am 01:59 Partly Cloudy 72 22.2 67 19.4 84 84 SSE 3 6 30.15 1021 8 13 0.00 0.00
2:59 am 02:59 Partly Cloudy 72 22.2 67 19.4 84 84 SE 3 6 30.14 1021 9 14 0.00 0.00
3:59 am 03:59 Partly Cloudy 70 21.1 67 19.4 90 90 Calm 30.14 1021 9 14 0.00 0.00
4:59 am 04:59 Partly Cloudy 72 22.2 67 19.4 84 84 S 3 6 30.14 1021 9 14 0.00 0.00
5:59 am 05:59 Mostly Cloudy 72 22.2 68 20 87 87 Calm 30.15 1021 8 13 0.00 0.00
6:59 am 06:59 Mostly Cloudy 72 22.2 68 20 87 87 Calm 30.15 1021 8 13 0.00 0.00
7:59 am 07:59 Mostly Cloudy 77 25 73 22.8 88 88 S 6 9 30.15 1021 10 16 0.00 0.00
8:59 am 08:59 Mostly Cloudy 82 27.8 71 21.7 69 69 SSW 9 15 30.14 1021 10 16 0.00 0.00
9:59 am 09:59 Mostly Cloudy 82 27.8 68 20 63 63 S 7 11 30.13 1020 10 16 0.00 0.00
10:59 am 10:59 Mostly Sunny 84 28.9 65 18.3 53 53 S 9 15 30.11 1020 10 16 0.00 0.00
11:59 am 11:59 Sunny 86 30 64 17.8 48 48 S 9 15 30.08 1019 10 16 0.00 0.00
12:59 pm 12:59 Partly Cloudy 91 32.8 62 16.7 38 38 SSE 12 19 30.06 1018 10 16 0.00 0.00
1:59 pm 13:59 Partly Cloudy 91 32.8 63 17.2 39 39 SW 10 17 30.03 1017 10 16 0.00 0.00
2:59 pm 14:59 Mostly Cloudy 91 32.8 65 18.3 42 42 S 12 19 30.01 1016 10 16 0.00 0.00
3:59 pm 15:59 Mostly Cloudy 91 32.8 66 18.9 44 44 SW 10 17 29.99 1016 10 16 0.00 0.00
4:59 pm 16:59 Mostly Cloudy 91 32.8 66 18.9 44 44 SSW 9 15 29.96 1015 10 16 0.00 0.00
5:59 pm 17:59 Mostly Cloudy 91 32.8 66 18.9 44 44 SSW 10 17 29.94 1014 10 16 0.00 0.00
6:59 pm 18:59 Mostly Cloudy 90 32.2 69 20.6 50 50 S 10 17 29.94 1014 10 16 0.00 0.00
7:59 pm 19:59 Mostly Cloudy 88 31.1 70 21.1 55 55 S 15 24 29.93 1013 10 16 0.00 0.00
8:59 pm 20:59 Mostly Cloudy 84 28.9 71 21.7 65 65 S 13 20 29.92 1013 10 16 0.00 0.00
9:59 pm 21:59 Mostly Cloudy 84 28.9 71 21.7 65 65 SSW 13 20 29.93 1014 10 16 0.00 0.00
10:59 pm 22:59 Mostly Cloudy 82 27.8 73 22.8 74 74 SSW 9 15 29.93 1013 10 16 0.00 0.00
11:59 pm 23:59 Mostly Cloudy 82 27.8 74 23.3 77 77 SSW 9 15 29.92 1013 10 16 0.00 0.00

Powered by AerisWeather